[[{"header":{"parameterUnit":"m.s-1","parameterCategory":1,"la1":30.2991,"la2":30.254,"lo1":-89.0895,"lo2":-89.0444,"dy":0.0017,"dx":0.0017,"nx":28,"ny":28,"refTime":"2025-04-22T09:00:00:Z","depth":0,"parameterNumber":2,"parameterNumberName":"U-component_of_WINDS"},"data":[0,0,0,0,0,0,0,0,0,0,0,0,0,0,0,0,0,0,0,0,0,0,0,0,0,0,0,0,0,0,0,0,0,0,0,0,0,0,0,0,0,0,0,0,0,0,0,0,0,0,0,0,0,0,0,0,0,0,-1.3275,-1.3276,0,-1.3373,-1.3375,-1.3376,-1.3411,-1.3411,-1.341,-1.341,-1.351,-1.3513,-1.3516,0,0,0,0,0,0,0,0,0,0,0,0,0,-1.3118,-1.312,-1.3275,-1.3276,-1.3278,-1.3373,-1.3375,-1.3376,-1.3411,-1.3411,-1.341,-1.341,-1.3509,-1.3512,-1.3516,0,0,0,0,0,0,0,0,0,0,0,0,0,-1.3198,-1.3121,-1.3275,-1.3307,-1.3311,-1.3373,-1.3375,-1.3376,-1.3411,-1.3411,-1.341,-1.341,-1.3508,-1.3512,-1.3516,-1.3554,0,0,-1.353,-1.3532,0,0,0,0,0,0,0,0,-1.3193,-1.3204,-1.3301,-1.3305,-1.3309,-1.338,-1.3356,-1.3436,-1.3411,-1.3373,-1.341,-1.3409,-1.3467,-1.3474,-1.3494,-1.3559,-1.3563,-1.353,-1.3533,-1.3535,-1.3536,0,0,0,0,0,0,0,-1.3188,-1.32,-1.3314,-1.3302,-1.3307,-1.3316,-1.3327,-1.3371,-1.3421,-1.3376,-1.3379,-1.339,-1.3469,-1.349,-1.3497,-1.3564,-1.353,-1.3534,-1.3537,-1.3539,-1.3665,-1.3666,0,0,0,0,0,0,-1.3177,-1.3195,-1.3311,-1.3317,-1.3249,-1.3319,-1.3331,-1.3357,-1.3421,-1.343,-1.3391,-1.3392,-1.3482,-1.3491,-1.35,-1.3549,-1.3535,-1.3539,-1.3542,-1.3664,-1.3665,-1.3666,0,0,0,0,0,0,-1.3173,-1.3187,-1.3307,-1.3257,-1.3273,-1.3322,-1.3351,-1.336,-1.338,-1.3432,-1.3441,-1.3403,-1.3482,-1.3494,-1.354,-1.3553,-1.3541,-1.3545,-1.3664,-1.3665,-1.3666,-1.3645,0,0,0,0,0,0,-1.3169,-1.3186,-1.32,-1.3257,-1.3275,-1.3346,-1.3352,-1.3362,-1.3388,-1.339,-1.3446,-1.3454,-1.3483,-1.3534,-1.3545,-1.3558,-1.3549,-1.3663,-1.3664,-1.3665,-1.3645,-1.3646,-1.3646,0,0,0,0,0,-1.3163,-1.3191,-1.3201,-1.3215,-1.3295,-1.3346,-1.3357,-1.3389,-1.3389,-1.3404,-1.3437,-1.3452,-1.3549,-1.3538,-1.3551,-1.3566,-1.3662,-1.3664,-1.3665,-1.3645,-1.3646,-1.3646,0,0,0,0,0,0,-1.3134,-1.3199,-1.3211,-1.3258,-1.3296,-1.3352,-1.3373,-1.3389,-1.3428,-1.3428,-1.3467,-1.3479,-1.3522,-1.3549,-1.3535,-1.3606,-1.3607,-1.3611,-1.3587,-1.3588,-1.3588,-1.3581,-1.3552,0,0,0,0,0,-1.3133,-1.317,-1.3224,-1.326,-1.3279,-1.3322,-1.3346,-1.3368,-1.3409,-1.3425,-1.3462,-1.3501,-1.3541,-1.3566,-1.3605,-1.3649,-1.3662,-1.3666,-1.3667,-1.3667,-1.367,-1.3695,-1.3698,-1.3671,-1.3671,-1.3671,0,0,-1.3132,-1.3172,-1.3192,-1.3255,-1.3288,-1.3325,-1.3336,-1.3374,-1.3402,-1.3431,-1.3477,-1.3506,-1.3552,-1.3598,-1.362,-1.3621,-1.368,-1.3669,-1.3668,-1.3671,-1.3697,-1.3699,-1.3702,-1.3672,-1.3672,-1.3672,0,0,-1.3148,-1.3182,-1.3216,-1.3248,-1.3297,-1.3326,-1.3334,-1.3387,-1.3407,-1.3454,-1.3477,-1.351,-1.3577,-1.361,-1.3635,-1.3663,-1.3678,-1.3675,-1.3677,-1.3701,-1.3703,-1.3705,-1.3715,-1.3718,-1.3678,-1.3678,-1.3678,0,-1.314,-1.3196,-1.3231,-1.3268,-1.3295,-1.3324,-1.3358,-1.3388,-1.3447,-1.3465,-1.3466,-1.3551,-1.3584,-1.3638,-1.3645,-1.3664,-1.3674,-1.3669,-1.37,-1.3702,-1.3705,-1.3715,-1.3718,-1.3677,-1.3677,-1.3677,-1.3677,0,-1.3184,-1.3223,-1.3244,-1.3301,-1.333,-1.3366,-1.3405,-1.3431,-1.345,-1.3478,-1.3526,-1.3567,-1.3615,-1.3629,-1.3648,-1.3686,-1.3685,-1.3693,-1.3694,-1.3706,-1.3716,-1.372,-1.3676,-1.3676,-1.3676,-1.3677,0,0,-1.3184,-1.326,-1.3267,-1.3293,-1.3349,-1.338,-1.3417,-1.3464,-1.3485,-1.3525,-1.3556,-1.3613,-1.362,-1.3649,-1.3672,-1.3693,-1.3712,-1.3698,-1.37,-1.3699,-1.3756,-1.3749,-1.3753,-1.3723,-1.3724,-1.3725,-1.3752,0,-1.3208,-1.3275,-1.3307,-1.336,-1.3396,-1.3424,-1.3456,-1.3494,-1.3521,-1.3556,-1.3586,-1.3626,-1.3633,-1.365,-1.3672,-1.3705,-1.3724,-1.3704,-1.3753,-1.3754,-1.374,-1.3759,-1.3752,-1.3776,-1.3756,-1.3757,-1.3757,0,-1.3244,-1.3284,-1.334,-1.3392,-1.3409,-1.3437,-1.3483,-1.3516,-1.3559,-1.3578,-1.3609,-1.3632,-1.3671,-1.367,-1.3725,-1.371,-1.3732,-1.3751,-1.3753,-1.3758,-1.3756,-1.3764,-1.3784,-1.3787,-1.3764,-1.3763,-1.3763,0,-1.3238,-1.3306,-1.3349,-1.337,-1.3432,-1.3451,-1.3478,-1.3521,-1.3547,-1.3587,-1.3604,-1.3648,-1.3672,-1.3706,-1.3739,-1.3735,-1.3791,-1.3792,-1.3807,-1.3806,-1.3817,-1.3816,-1.384,-1.3832,-1.3831,-1.3831,-1.3831,0,-1.3261,-1.3294,-1.3347,-1.3373,-1.3412,-1.3448,-1.3485,-1.3514,-1.3552,-1.3584,-1.3611,-1.364,-1.3682,-1.3717,-1.3744,-1.3785,-1.3796,-1.3812,-1.3818,-1.3809,-1.3807,-1.3824,-1.3823,-1.3832,-1.3832,-1.3832,-1.3832,0,-1.3261,-1.3298,-1.3346,-1.3401,-1.3415,-1.3441,-1.3488,-1.3514,-1.3543,-1.3583,-1.3595,-1.364,-1.3683,-1.3719,-1.3775,-1.3793,-1.3835,-1.3843,-1.3821,-1.3824,-1.3837,-1.3835,-1.3873,-1.3879,-1.3866,-1.3866,-1.3866,0,-1.3273,-1.33,-1.3357,-1.338,-1.3407,-1.3444,-1.3471,-1.3508,-1.3535,-1.3586,-1.3606,-1.3651,-1.3688,-1.3754,-1.3792,-1.3835,-1.3844,-1.3854,-1.3851,-1.3841,-1.3844,-1.3842,-1.3845,-1.3854,-1.3854,-1.3854,-1.3854,0,-1.329,-1.3307,-1.3345,-1.3389,-1.3421,-1.3457,-1.3495,-1.3512,-1.3556,-1.3585,-1.3629,-1.3658,-1.3715,-1.3758,-1.3805,-1.3833,-1.3851,-1.3855,-1.3861,-1.3852,-1.3837,-1.3845,-1.382,-1.3854,-1.3854,-1.3854,-1.3854,-1.3854,-1.3297,-1.3322,-1.3366,-1.3407,-1.3439,-1.3473,-1.3501,-1.3533,-1.357,-1.362,-1.3639,-1.3684,-1.3726,-1.3791,-1.3819,-1.3854,-1.3857,-1.3865,-1.3867,-1.3868,-1.3867,-1.3832,-1.3862,-1.3862,-1.3863,-1.3863,-1.3863,0,-1.3316,-1.3345,-1.3383,-1.3434,-1.3467,-1.3481,-1.3523,-1.3549,-1.3588,-1.3626,-1.3663,-1.3713,-1.3755,-1.3796,-1.3841,-1.3861,-1.387,-1.3871,-1.387,-1.3876,-1.3862,-1.3852,-1.3863,-1.3863,-1.3863,-1.3863,-1.3863,-1.3863,-1.3329,-1.3372,-1.3394,-1.3452,-1.3482,-1.3526,-1.3548,-1.358,-1.3611,-1.3665,-1.3701,-1.3727,-1.3767,-1.3814,-1.3854,-1.3865,-1.388,-1.3878,-1.3892,-1.3877,-1.3877,-1.3876,-1.3868,-1.3881,-1.3881,-1.3903,-1.3903,-1.3903]},{"header":{"parameterUnit":"m.s-1","parameterCategory":1,"la1":30.2991,"la2":30.254,"lo1":-89.0895,"lo2":-89.0444,"dy":0.0017,"dx":0.0017,"nx":28,"ny":28,"refTime":"2025-04-22T09:00:00:Z","depth":0,"parameterNumber":3,"parameterNumberName":"V-component_of_WINDS"},"data":[0,0,0,0,0,0,0,0,0,0,0,0,0,0,0,0,0,0,0,0,0,0,0,0,0,0,0,0,0,0,0,0,0,0,0,0,0,0,0,0,0,0,0,0,0,0,0,0,0,0,0,0,0,0,0,0,0,0,3.9162,3.9163,0,3.9213,3.9214,3.9214,3.9193,3.9192,3.9191,3.919,3.9239,3.9241,3.9243,0,0,0,0,0,0,0,0,0,0,0,0,0,3.9045,3.9047,3.9162,3.9163,3.9163,3.9213,3.9214,3.9214,3.9193,3.9192,3.919,3.9189,3.9238,3.9241,3.9244,0,0,0,0,0,0,0,0,0,0,0,0,0,3.9096,3.9048,3.9162,3.9159,3.9159,3.9213,3.9214,3.9215,3.9194,3.9192,3.919,3.9188,3.9237,3.924,3.9244,3.9303,0,0,3.9255,3.9257,0,0,0,0,0,0,0,0,3.9093,3.91,3.9159,3.9159,3.916,3.9195,3.919,3.9244,3.9194,3.918,3.919,3.9187,3.9225,3.923,3.9243,3.9305,3.9307,3.9255,3.9258,3.9259,3.926,0,0,0,0,0,0,0,3.909,3.9098,3.9182,3.916,3.916,3.9155,3.916,3.9201,3.9212,3.9181,3.918,3.9187,3.9225,3.924,3.9244,3.9308,3.9255,3.9259,3.9261,3.9262,3.9424,3.9426,0,0,0,0,0,0,3.9086,3.9095,3.918,3.9184,3.9121,3.9158,3.9164,3.9185,3.9212,3.9214,3.9188,3.9185,3.9234,3.924,3.9246,3.9319,3.9259,3.9263,3.9265,3.9422,3.9424,3.9426,0,0,0,0,0,0,3.9084,3.9094,3.9178,3.9139,3.9149,3.9162,3.9186,3.9187,3.9202,3.9217,3.9219,3.9201,3.9233,3.9241,3.929,3.932,3.9264,3.9268,3.9419,3.9422,3.9425,3.9463,0,0,0,0,0,0,3.9081,3.9093,3.9116,3.914,3.9152,3.9222,3.9188,3.919,3.9209,3.9206,3.9229,3.9232,3.9232,3.9284,3.9293,3.9324,3.927,3.9417,3.9421,3.9424,3.9459,3.9467,3.9474,0,0,0,0,0,3.9077,3.9123,3.9117,3.9127,3.918,3.9223,3.923,3.9231,3.9211,3.9234,3.9244,3.9231,3.9315,3.929,3.9299,3.9332,3.9415,3.9419,3.9424,3.9456,3.9466,3.9474,0,0,0,0,0,0,3.91,3.9126,3.912,3.9175,3.9198,3.922,3.9248,3.9241,3.9268,3.9264,3.9263,3.9269,3.932,3.933,3.9302,3.9392,3.9362,3.9369,3.9383,3.9392,3.94,3.9396,3.9273,0,0,0,0,0,3.9112,3.9146,3.9166,3.9214,3.9225,3.9235,3.9254,3.9253,3.9276,3.9285,3.9298,3.932,3.9352,3.9372,3.9402,3.9461,3.9467,3.9488,3.9496,3.9502,3.9508,3.9542,3.9553,3.9442,3.9442,3.9442,0,0,3.9136,3.9155,3.9176,3.9219,3.9236,3.9271,3.9243,3.928,3.9307,3.929,3.9338,3.9349,3.9373,3.9428,3.9453,3.9439,3.954,3.9508,3.9512,3.9515,3.9548,3.9559,3.9568,3.9445,3.9445,3.9444,0,0,3.92,3.9216,3.9259,3.9278,3.9305,3.9312,3.9322,3.9347,3.9354,3.9402,3.9392,3.9422,3.9476,3.9495,3.9512,3.9586,3.9575,3.9595,3.9634,3.9668,3.9677,3.9684,3.9713,3.9723,3.9601,3.9601,3.9601,0,3.9226,3.928,3.9281,3.9322,3.9342,3.933,3.9374,3.9391,3.9426,3.944,3.9424,3.9494,3.9509,3.957,3.9589,3.9602,3.9614,3.9593,3.9675,3.9683,3.9691,3.9718,3.9728,3.9604,3.9604,3.9603,3.9603,0,3.9312,3.935,3.9381,3.9418,3.9441,3.9482,3.9491,3.9514,3.9512,3.9521,3.9572,3.9591,3.9625,3.9639,3.9636,3.9701,3.9691,3.9675,3.9645,3.9704,3.9729,3.9739,3.9607,3.9606,3.9606,3.9605,0,0,3.939,3.943,3.9442,3.946,3.949,3.9519,3.9561,3.9597,3.9618,3.9643,3.9678,3.9726,3.9713,3.9732,3.9731,3.9761,3.9821,3.9741,3.9742,3.9757,3.9896,3.9909,3.9921,3.9815,3.9816,3.9818,3.9894,0,3.9457,3.9532,3.9536,3.9603,3.9639,3.963,3.9667,3.969,3.97,3.9731,3.9742,3.9777,3.9755,3.9767,3.9796,3.9808,3.9849,3.9802,3.9848,3.985,3.9844,3.9933,3.9947,4.0018,3.9904,3.9906,3.9907,0,3.9544,3.9575,3.9647,3.9676,3.9691,3.9724,3.9759,3.9789,3.9816,3.9821,3.9844,3.984,3.9884,3.9853,3.9913,3.9881,3.9901,3.991,3.9913,3.9918,3.9883,3.9942,4.004,4.0051,3.9922,3.9921,3.992,0,3.9597,3.9656,3.9707,3.9723,3.9757,3.9781,3.9796,3.9821,3.9843,3.9873,3.9888,3.9922,3.9941,3.9968,3.9974,3.9951,4.0036,4.0004,4.0042,4.0042,4.0061,4.006,4.0164,4.0071,4.0071,4.0071,4.0071,0,3.9672,3.9716,3.9732,3.9764,3.9814,3.9819,3.9869,3.9882,3.9905,3.994,3.9933,3.9966,3.9971,4.0005,4.001,4.0061,4.0069,4.0075,4.0076,4.0076,4.0076,4.0089,4.0085,4.0074,4.0073,4.0072,4.0072,0,3.9738,3.975,3.9806,3.9835,3.9844,3.988,3.9905,3.9936,3.9946,3.999,4.0,4.0016,4.0056,4.0065,4.0111,4.0115,4.0176,4.0171,4.0168,4.0168,4.0206,4.0203,4.0323,4.034,4.0235,4.0236,4.0237,0,3.9786,3.9821,3.9855,3.9878,3.9896,3.9933,3.9957,3.9963,3.9988,4.0023,4.005,4.009,4.0122,4.0186,4.0202,4.0238,4.0235,4.0275,4.024,4.0241,4.0238,4.0236,4.0241,4.0282,4.0283,4.0284,4.0284,0,3.987,3.9875,3.991,3.9948,3.9977,4.0007,4.0035,4.0055,4.0066,4.0094,4.0136,4.0161,4.0211,4.0251,4.0288,4.0303,4.0296,4.0295,4.0306,4.0308,4.0305,4.0309,4.0187,4.0293,4.0292,4.0291,4.0291,4.029,3.993,3.9961,3.9991,4.0031,4.0054,4.0082,4.0113,4.0129,4.0164,4.0206,4.0208,4.0254,4.0282,4.0331,4.0349,4.0386,4.0373,4.0388,4.0393,4.0397,4.0401,4.0299,4.0392,4.0392,4.0392,4.0391,4.0391,0,4.0015,4.0035,4.0072,4.0113,4.0145,4.0138,4.0169,4.0197,4.0238,4.0265,4.0298,4.0347,4.0387,4.0407,4.0446,4.0471,4.047,4.0482,4.048,4.0485,4.0409,4.0397,4.0483,4.0483,4.0483,4.0483,4.0483,4.0483,4.0063,4.0118,4.0127,4.0193,4.0212,4.0258,4.0278,4.0304,4.0326,4.0382,4.0416,4.0429,4.0454,4.0495,4.0532,4.0536,4.0552,4.0566,4.057,4.0499,4.0489,4.0481,4.0469,4.0569,4.0569,4.0642,4.0643,4.0643]}]]